GW7202 Weather Reports


time (UTC)temp
C
wind
direction
speed
KPH
gust
KPH
rain 1hr
cm
rain 24hr
cm
rain mn
cm
humidity
%
barometer
mb
20260505083024 17 226 4.8 12.9 0.00 0.00 0.00 72 1004.9
20260505081516 17 184 6.4 11.3 0.00 0.00 0.00 71 1004.7
20260505080014 17 162 9.7 16.1 0.00 0.00 0.00 71 1004.9
20260505074511 17 173 8.0 12.9 0.00 0.00 0.00 70 1005.0
20260505073027 17 161 6.4 16.1 0.00 0.00 0.00 70 1005.4
20260505071524 17 203 9.7 12.9 0.00 0.00 0.00 69 1005.8
20260505070023 18 172 8.0 19.3 0.00 0.00 0.00 68 1005.9
20260505064520 18 195 8.0 16.1 0.00 0.00 0.00 68 1006.2
20260505063017 17 184 8.0 11.3 0.00 0.00 0.00 68 1005.8
20260505061545 18 164 8.0 12.9 0.00 0.00 0.00 67 1005.3
20260505060014 18 180 6.4 11.3 0.00 0.00 0.00 66 1005.7
20260505054511 18 152 4.8 11.3 0.00 0.00 0.00 65 1005.6
20260505053038 18 155 4.8 25.7 0.00 0.00 0.00 64 1005.2
20260505051552 18 177 9.7 19.3 0.00 0.00 0.00 64 1005.1
20260505041516 20 155 8.0 19.3 0.00 0.00 0.00 61 1005.9
20260505040017 20 180 9.7 19.3 0.00 0.00 0.00 61 1006.0
20260505034530 20 229 6.4 16.1 0.00 0.00 0.00 60 1006.2
20260505033030 20 204 8.0 16.1 0.00 0.00 0.00 60 1006.2
20260505031524 20 198 6.4 12.9 0.00 0.00 0.00 59 1005.9
20260505030024 20 190 3.2 11.3 0.00 0.00 0.00 59 1005.6
20260505024522 20 146 4.8 9.7 0.00 0.00 0.00 58 1005.4
20260505023023 21 167 4.8 12.9 0.00 0.00 0.00 57 1005.1
20260505021518 21 205 4.8 9.7 0.00 0.00 0.00 57 1004.8
20260505020026 21 219 4.8 8.0 0.00 0.00 0.00 56 1004.7
20260505014528 21 193 6.4 9.7 0.00 0.00 0.00 54 1004.4
20260505013029 22 206 4.8 9.7 0.00 0.00 0.00 54 1004.4
20260505011526 22 138 6.4 14.5 0.00 0.00 0.00 53 1004.4
20260505010024 23 139 8.0 12.9 0.00 0.00 0.00 52 1004.2
20260505004507 23 172 4.8 12.9 0.00 0.00 0.00 51 1004.0
20260505003018 23 155 6.4 16.1 0.00 0.00 0.00 49 1003.9
20260505001509 24 181 6.4 16.1 0.00 0.00 0.00 47 1003.8
20260505000009 25 203 4.8 16.1 0.00 0.00 0.00 44 1003.8
20260504234511 25 158 8.0 24.1 0.00 0.00 0.00 42 1003.7
20260504233010 26 214 12.9 32.2 0.00 0.00 0.00 40 1003.9
20260504231507 27 162 14.5 25.7 0.00 0.00 0.00 39 1003.9
20260504230008 27 208 6.4 29.0 0.00 0.00 0.00 41 1004.0
20260504224508 27 183 12.9 27.4 0.00 0.00 0.00 39 1003.9
20260504223013 27 181 9.7 24.1 0.00 0.00 0.00 39 1003.8
20260504221512 27 208 8.0 24.1 0.00 0.00 0.00 41 1003.7
20260504220009 26 174 12.9 29.0 0.00 0.00 0.00 41 1003.8
20260504214514 27 204 17.7 30.6 0.00 0.00 0.00 40 1004.0
20260504213017 27 190 9.7 29.0 0.00 0.00 0.00 41 1004.0
20260504211506 27 131 6.4 30.6 0.00 0.00 0.00 42 1003.9
20260504210014 26 181 11.3 33.8 0.00 0.00 0.00 45 1003.9
20260504204511 26 192 16.1 25.7 0.00 0.00 0.00 43 1004.2
20260504203021 26 204 14.5 33.8 0.00 0.00 0.00 43 1004.4
20260504201515 26 206 9.7 29.0 0.00 0.00 0.00 43 1004.2
20260504200015 26 199 19.3 25.7 0.00 0.00 0.00 43 1004.5
20260504194516 25 137 17.7 25.7 0.00 0.00 0.00 43 1005.1
20260504193017 26 180 8.0 20.9 0.00 0.00 0.00 46 1005.5
20260504191520 25 214 8.0 19.3 0.00 0.00 0.00 46 1005.7
20260504190018 24 196 6.4 25.7 0.00 0.00 0.00 46 1005.9
20260504184518 25 182 12.9 27.4 0.00 0.00 0.00 45 1006.1
20260504183017 25 200 11.3 30.6 0.00 0.00 0.00 43 1005.9
20260504181517 26 188 8.0 22.5 0.00 0.00 0.00 43 1005.9
20260504180016 25 190 11.3 25.7 0.00 0.00 0.00 43 1005.9
20260504174516 25 174 12.9 25.7 0.00 0.00 0.00 45 1006.0
20260504173010 25 153 11.3 33.8 0.00 0.00 0.00 45 1006.0
20260504171520 25 217 11.3 24.1 0.00 0.00 0.00 43 1006.1